,,,PA_Meas_PMT16A,,PR_Meas_QMR101_102,,RH_Meas_QMH101,,SR_Meas_QMS101,,TA_Meas_QMH101,,GenWind,,GenWind,
date,time,status,PA,status,PR,status,RH,status,SR,status,TA,status,DirAvg,status,SpdAvg,
2011-02-02, 00:00:04,VALID,998.238,VALID,0,VALID,83.6435,VALID,0,VALID,25.3621,VALID,238,VALID,1.25352,
2011-02-02, 00:01:04,VALID,998.234,VALID,0,VALID,83.5672,VALID,0,VALID,25.3797,VALID,233,VALID,1.12695,
2011-02-02, 00:02:04,VALID,998.22,VALID,0,VALID,83.201,VALID,0,VALID,25.3993,VALID,199,VALID,1.20625,
2011-02-02, 00:03:04,VALID,998.213,VALID,0,VALID,82.9721,VALID,0,VALID,25.3993,VALID,242,VALID,1.36641,
2011-02-02, 00:04:04,VALID,998.186,VALID,0,VALID,83.0179,VALID,0,VALID,25.3993,VALID,267,VALID,0.597656,
2011-02-02, 00:05:04,VALID,998.196,VALID,0,VALID,82.8958,VALID,0,VALID,25.3797,VALID,241,VALID,1.41836,
2011-02-02, 00:06:04,VALID,998.172,VALID,0,VALID,82.8424,VALID,0,VALID,25.3797,VALID,256,VALID,1.71094,
2011-02-02, 00:07:04,VALID,998.196,VALID,0,VALID,82.4304,VALID,0,VALID,25.3993,VALID,251,VALID,1.74336,
2011-02-02, 00:08:04,VALID,998.177,VALID,0,VALID,82.644,VALID,0,VALID,25.3797,VALID,230,VALID,0.388672,
2011-02-02, 00:09:04,VALID,998.191,VALID,0,VALID,82.4457,VALID,0,VALID,25.3817,VALID,201,VALID,1.05078,
2011-02-02, 00:10:04,VALID,998.18,VALID,0,VALID,82.5143,VALID,0,VALID,25.3602,VALID,219,VALID,0.6,
2011-02-02, 00:11:04,VALID,998.193,VALID,0,VALID,81.5149,VALID,0,VALID,25.3797,VALID,239,VALID,2.43984,
2011-02-02, 00:12:04,VALID,998.188,VALID,0,VALID,80.9884,VALID,0,VALID,25.4578,VALID,223,VALID,1.75898,
2011-02-02, 00:13:04,VALID,998.128,VALID,0,VALID,80.8053,VALID,0,VALID,25.4774,VALID,258,VALID,1.24492,
2011-02-02, 00:14:04,VALID,998.145,VALID,0,VALID,80.8663,VALID,0,VALID,25.4578,VALID,250,VALID,0.716406,
2011-02-02, 00:15:04,VALID,998.127,VALID,0,VALID,80.8892,VALID,0,VALID,25.4383,VALID,244,VALID,1.05938,
2011-02-02, 00:16:04,VALID,998.108,VALID,0,VALID,80.9808,VALID,0,VALID,25.4188,VALID,240,VALID,1.17539,
2011-02-02, 00:17:04,VALID,998.114,VALID,0,VALID,81.1792,VALID,0,VALID,25.4207,VALID,254,VALID,1.0332,
2011-02-02, 00:18:04,VALID,998.114,VALID,0,VALID,80.8969,VALID,0,VALID,25.4207,VALID,234,VALID,0.919141,
2011-02-02, 00:19:04,VALID,998.095,VALID,0,VALID,80.9884,VALID,0,VALID,25.3993,VALID,232,VALID,1.14609,
2011-02-02, 00:20:04,VALID,998.109,VALID,0,VALID,80.7366,VALID,0,VALID,25.3993,VALID,259,VALID,1.25273,
2011-02-02, 00:21:04,VALID,998.073,VALID,0,VALID,80.6603,VALID,0,VALID,25.4188,VALID,254,VALID,0.877734,
2011-02-02, 00:22:04,VALID,998.077,VALID,0,VALID,80.9045,VALID,0,VALID,25.3993,VALID,254,VALID,0.836719,
2011-02-02, 00:23:04,VALID,998.018,VALID,0,VALID,80.3475,VALID,0,VALID,25.3993,VALID,257,VALID,2.33281,
2011-02-02, 00:24:04,VALID,998.024,VALID,0,VALID,80.3857,VALID,0,VALID,25.4578,VALID,235,VALID,0.953125,
2011-02-02, 00:25:04,VALID,998.016,VALID,0,VALID,80.5612,VALID,0,VALID,25.4383,VALID,206,VALID,0.453906,
2011-02-02, 00:26:04,VALID,998.035,VALID,0,VALID,80.7061,VALID,0,VALID,25.3797,VALID,248,VALID,0.69375,
2011-02-02, 00:27:04,VALID,998.004,VALID,0,VALID,80.5459,VALID,0,VALID,25.3973,VALID,249,VALID,0.632813,
2011-02-02, 00:28:04,VALID,998.034,VALID,0,VALID,80.7214,VALID,0,VALID,25.3778,VALID,232,VALID,0.759766,
2011-02-02, 00:29:04,VALID,997.981,VALID,0,VALID,80.7748,VALID,0,VALID,25.3583,VALID,187,VALID,0.588281,
2011-02-02, 00:30:04,VALID,997.986,VALID,0,VALID,80.6146,VALID,0,VALID,25.3583,VALID,231,VALID,0.680078,
2011-02-02, 00:31:04,VALID,997.964,VALID,0,VALID,80.6375,VALID,0,VALID,25.3797,VALID,238,VALID,1.02148,
2011-02-02, 00:32:04,VALID,997.952,VALID,0,VALID,80.6756,VALID,0,VALID,25.3583,VALID,227,VALID,0.937891,
2011-02-02, 00:33:04,VALID,997.953,VALID,0,VALID,80.7519,VALID,0.112286,VALID,25.3388,VALID,198,VALID,1.47695,
2011-02-02, 00:34:04,VALID,997.905,VALID,0,VALID,81.0037,VALID,0,VALID,25.3797,VALID,214,VALID,0.650781,
2011-02-02, 00:35:04,VALID,997.85,VALID,0,VALID,80.8053,VALID,0,VALID,25.3778,VALID,207,VALID,1.69687,
2011-02-02, 00:36:04,VALID,997.856,VALID,0,VALID,80.8053,VALID,0.112286,VALID,25.4364,VALID,250,VALID,0.633594,
2011-02-02, 00:37:04,VALID,997.857,VALID,0,VALID,80.4391,VALID,0,VALID,25.4559,VALID,241,VALID,1.36953,
2011-02-02, 00:38:04,VALID,997.84,VALID,0,VALID,80.3399,VALID,0.112286,VALID,25.4754,VALID,192,VALID,0.440625,
2011-02-02, 00:39:04,VALID,997.825,VALID,0,VALID,80.378,VALID,0.112286,VALID,25.5145,VALID,216,VALID,1.43008,
2011-02-02, 00:40:04,VALID,997.814,VALID,0,VALID,80.4696,VALID,0,VALID,25.5145,VALID,230,VALID,0.879297,
2011-02-02, 00:41:04,VALID,997.813,VALID,0,VALID,80.4696,VALID,0,VALID,25.534,VALID,229,VALID,1.36641,
2011-02-02, 00:42:04,VALID,997.797,VALID,0,VALID,80.4696,VALID,0,VALID,25.5359,VALID,223,VALID,1.1125,
2011-02-02, 00:43:04,VALID,997.781,VALID,0,VALID,80.7061,VALID,0,VALID,25.5359,VALID,197,VALID,0.855469,
2011-02-02, 00:44:04,VALID,997.771,VALID,0,VALID,80.874,VALID,0,VALID,25.5164,VALID,202,VALID,0.565234,
2011-02-02, 00:45:04,VALID,997.766,VALID,0,VALID,81.0571,VALID,0,VALID,25.4578,VALID,246,VALID,0.442578,
2011-02-02, 00:46:04,VALID,997.772,VALID,0,VALID,81.141,VALID,0,VALID,25.4383,VALID,230,VALID,1.58672,
2011-02-02, 00:47:04,VALID,997.756,VALID,0,VALID,80.9884,VALID,0,VALID,25.4578,VALID,226,VALID,1.25703,
2011-02-02, 00:48:04,VALID,997.762,VALID,0,VALID,81.0113,VALID,0,VALID,25.4793,VALID,210,VALID,0.996875,
2011-02-02, 00:49:04,VALID,997.734,VALID,0,VALID,81.2326,VALID,0,VALID,25.4598,VALID,198,VALID,1.09609,
2011-02-02, 00:50:04,VALID,997.767,VALID,0,VALID,81.202,VALID,0,VALID,25.4578,VALID,230,VALID,1.48594,
2011-02-02, 00:51:04,VALID,997.73,VALID,0,VALID,81.1486,VALID,0,VALID,25.4578,VALID,249,VALID,1.05938,
2011-02-02, 00:52:04,VALID,997.739,VALID,0,VALID,81.1715,VALID,0,VALID,25.4383,VALID,243,VALID,0.723047,
2011-02-02, 00:53:04,VALID,997.783,VALID,0,VALID,81.2478,VALID,0,VALID,25.4383,VALID,231,VALID,0.912109,
2011-02-02, 00:54:04,VALID,997.729,VALID,0,VALID,81.2173,VALID,0,VALID,25.4578,VALID,213,VALID,1.40352,
2011-02-02, 00:55:04,VALID,997.739,VALID,0,VALID,81.2707,VALID,0,VALID,25.4774,VALID,214,VALID,0.623047,
2011-02-02, 00:56:04,VALID,997.742,VALID,0,VALID,81.3699,VALID,0,VALID,25.4578,VALID,223,VALID,1.34531,
2011-02-02, 00:57:04,VALID,997.722,VALID,0,VALID,81.1486,VALID,0,VALID,25.4774,VALID,232,VALID,1.03594,
2011-02-02, 00:58:04,VALID,997.712,VALID,0,VALID,81.1792,VALID,0,VALID,25.4774,VALID,236,VALID,1.06055,
2011-02-02, 00:59:04,VALID,997.687,VALID,0,VALID,81.0723,VALID,0,VALID,25.4969,VALID,246,VALID,0.83125,
2011-02-02, 01:00:04,VALID,997.677,VALID,0,VALID,81.0418,VALID,0,VALID,25.4969,VALID,204,VALID,0.941797,
2011-02-02, 01:01:04,VALID,997.678,VALID,0,VALID,81.2631,VALID,0,VALID,25.4969,VALID,223,VALID,0.985156,
2011-02-02, 01:02:04,VALID,997.683,VALID,0,VALID,81.1944,VALID,0,VALID,25.4969,VALID,228,VALID,1.44922,
2011-02-02, 01:03:04,VALID,997.646,VALID,0,VALID,81.2402,VALID,0,VALID,25.4774,VALID,233,VALID,0.567187,
2011-02-02, 01:04:04,VALID,997.618,VALID,0,VALID,81.2402,VALID,0,VALID,25.4383,VALID,204,VALID,0.924219,
2011-02-02, 01:05:04,VALID,997.606,VALID,0,VALID,81.3165,VALID,0,VALID,25.4383,VALID,209,VALID,1.28398,
2011-02-02, 01:06:04,VALID,997.589,VALID,0,VALID,81.2783,VALID,0,VALID,25.4402,VALID,215,VALID,0.595703,
2011-02-02, 01:07:04,VALID,997.595,VALID,0,VALID,81.4309,VALID,0,VALID,25.3993,VALID,182,VALID,0.539063,
2011-02-02, 01:08:04,VALID,997.604,VALID,0,VALID,81.1868,VALID,0,VALID,25.3993,VALID,211,VALID,1.81328,
2011-02-02, 01:09:04,VALID,997.59,VALID,0,VALID,80.4772,VALID,0,VALID,25.4988,VALID,219,VALID,1.54648,
2011-02-02, 01:10:04,VALID,997.546,VALID,0,VALID,80.0271,VALID,0,VALID,25.5164,VALID,210,VALID,1.23711,
2011-02-02, 01:11:04,VALID,997.524,VALID,0,VALID,79.9813,VALID,0,VALID,25.5359,VALID,184,VALID,2.03516,
2011-02-02, 01:12:04,VALID,997.51,VALID,0,VALID,79.7982,VALID,0.112286,VALID,25.534,VALID,240,VALID,1.66797,
2011-02-02, 01:13:04,VALID,997.494,VALID,0,VALID,79.8363,VALID,0,VALID,25.5535,VALID,240,VALID,1.62617,
2011-02-02, 01:14:04,VALID,997.501,VALID,0,VALID,80.0271,VALID,0,VALID,25.5145,VALID,208,VALID,1.03711,
2011-02-02, 01:15:04,VALID,997.49,VALID,0,VALID,79.8745,VALID,0,VALID,25.5145,VALID,245,VALID,1.54219,
2011-02-02, 01:16:04,VALID,997.446,VALID,0,VALID,79.8974,VALID,0,VALID,25.5145,VALID,238,VALID,1.08828,
2011-02-02, 01:17:04,VALID,997.429,VALID,0,VALID,80.0805,VALID,0.112286,VALID,25.4754,VALID,203,VALID,0.689453,
2011-02-02, 01:18:04,VALID,997.358,VALID,0,VALID,80.3475,VALID,0,VALID,25.4578,VALID,215,VALID,0.641406,
2011-02-02, 01:19:04,VALID,997.358,VALID,0,VALID,80.4772,VALID,0.112286,VALID,25.3973,VALID,232,VALID,0.287891,
2011-02-02, 01:20:04,VALID,997.347,VALID,0,VALID,80.584,VALID,0,VALID,25.3388,VALID,232,VALID,0.401172,
2011-02-02, 01:21:04,VALID,997.331,VALID,0,VALID,80.6146,VALID,0,VALID,25.3193,VALID,232,VALID,0.267578,
2011-02-02, 01:22:04,VALID,997.311,VALID,0,VALID,80.7672,VALID,0,VALID,25.2997,VALID,240,VALID,0.535937,
2011-02-02, 01:23:04,VALID,997.319,VALID,0,VALID,80.8892,VALID,0,VALID,25.2802,VALID,249,VALID,0.896875,
2011-02-02, 01:24:04,VALID,997.272,VALID,0,VALID,80.6451,VALID,0,VALID,25.2607,VALID,278,VALID,0.783203,
2011-02-02, 01:25:04,VALID,997.211,VALID,0,VALID,80.462,VALID,0.112286,VALID,25.2997,VALID,241,VALID,1.05469,
2011-02-02, 01:26:04,VALID,997.208,VALID,0,VALID,80.5306,VALID,0,VALID,25.2997,VALID,237,VALID,0.698828,
2011-02-02, 01:27:04,VALID,997.166,VALID,0,VALID,80.4467,VALID,0.112286,VALID,25.2997,VALID,230,VALID,0.732422,
2011-02-02, 01:28:04,VALID,997.18,VALID,0,VALID,80.6375,VALID,0,VALID,25.2607,VALID,222,VALID,0.543359,
2011-02-02, 01:29:04,VALID,997.15,VALID,0,VALID,80.8206,VALID,0.112286,VALID,25.2412,VALID,204,VALID,0.892578,
2011-02-02, 01:30:04,VALID,997.124,VALID,0,VALID,80.8663,VALID,0,VALID,25.2021,VALID,240,VALID,1.12656,
2011-02-02, 01:31:04,VALID,997.111,VALID,0,VALID,80.7366,VALID,0,VALID,25.2412,VALID,238,VALID,0.937891,
2011-02-02, 01:32:04,VALID,997.123,VALID,0,VALID,80.6298,VALID,0,VALID,25.2607,VALID,253,VALID,1.00156,
2011-02-02, 01:33:04,VALID,997.149,VALID,0,VALID,80.7519,VALID,0,VALID,25.2821,VALID,232,VALID,0.789063,
2011-02-02, 01:34:04,VALID,997.15,VALID,0,VALID,80.378,VALID,0.112286,VALID,25.2821,VALID,228,VALID,1.68945,
2011-02-02, 01:35:04,VALID,997.11,VALID,0,VALID,80.4009,VALID,0,VALID,25.3407,VALID,193,VALID,0.7375,
2011-02-02, 01:36:04,VALID,997.09,VALID,0,VALID,80.5535,VALID,0,VALID,25.2607,VALID,200,VALID,0.689453,
2011-02-02, 01:37:04,VALID,997.094,VALID,0,VALID,80.4315,VALID,0,VALID,25.2412,VALID,205,VALID,0.808203,
2011-02-02, 01:38:04,VALID,997.128,VALID,0,VALID,80.3246,VALID,0.112286,VALID,25.2607,VALID,251,VALID,0.595312,
2011-02-02, 01:39:04,VALID,997.133,VALID,0,VALID,80.4086,VALID,0,VALID,25.2607,VALID,228,VALID,0.946094,
2011-02-02, 01:40:04,VALID,997.101,VALID,0,VALID,80.3933,VALID,0.112286,VALID,25.2607,VALID,207,VALID,1.18906,
2011-02-02, 01:41:04,VALID,997.092,VALID,0,VALID,80.2255,VALID,0,VALID,25.2997,VALID,214,VALID,0.824609,
2011-02-02, 01:42:04,VALID,997.072,VALID,0,VALID,80.0576,VALID,0,VALID,25.3017,VALID,221,VALID,0.848047,
2011-02-02, 01:43:04,VALID,997.063,VALID,0,VALID,80.0271,VALID,0,VALID,25.2821,VALID,219,VALID,0.728516,
2011-02-02, 01:44:04,VALID,997.056,VALID,0,VALID,80.1034,VALID,0,VALID,25.2821,VALID,215,VALID,0.66875,
2011-02-02, 01:45:04,VALID,997.01,VALID,0,VALID,79.9279,VALID,0,VALID,25.3212,VALID,226,VALID,1.47266,
2011-02-02, 01:46:04,VALID,996.993,VALID,0,VALID,79.6303,VALID,0,VALID,25.3602,VALID,188,VALID,0.745313,
2011-02-02, 01:47:04,VALID,996.958,VALID,0,VALID,79.6761,VALID,0,VALID,25.3797,VALID,212,VALID,0.736719,
2011-02-02, 01:48:04,VALID,996.981,VALID,0,VALID,79.6151,VALID,0,VALID,25.3993,VALID,223,VALID,0.915234,
2011-02-02, 01:49:04,VALID,996.938,VALID,0,VALID,79.3404,VALID,0,VALID,25.4578,VALID,221,VALID,1.07422,
2011-02-02, 01:50:04,VALID,996.955,VALID,0,VALID,79.2107,VALID,0,VALID,25.4969,VALID,238,VALID,1.09922,
2011-02-02, 01:51:04,VALID,996.921,VALID,0,VALID,78.73,VALID,0,VALID,25.575,VALID,212,VALID,1.54961,
2011-02-02, 01:52:04,VALID,996.957,VALID,0,VALID,78.7529,VALID,0,VALID,25.5555,VALID,214,VALID,1.10625,
2011-02-02, 01:53:04,VALID,996.948,VALID,0,VALID,79.1344,VALID,0,VALID,25.5555,VALID,228,VALID,0.71875,
2011-02-02, 01:54:04,VALID,996.969,VALID,0,VALID,78.9284,VALID,0,VALID,25.5359,VALID,238,VALID,0.810938,
2011-02-02, 01:55:04,VALID,996.975,VALID,0,VALID,79.1039,VALID,0,VALID,25.5359,VALID,220,VALID,0.975,
2011-02-02, 01:56:04,VALID,996.975,VALID,0,VALID,79.1573,VALID,0,VALID,25.4969,VALID,220,VALID,0.234766,
2011-02-02, 01:57:04,VALID,996.961,VALID,0,VALID,79.3786,VALID,0,VALID,25.4578,VALID,220,VALID,0.458984,
2011-02-02, 01:58:04,VALID,996.909,VALID,0,VALID,78.9208,VALID,0,VALID,25.4793,VALID,197,VALID,2.02344,
2011-02-02, 01:59:04,VALID,996.911,VALID,0,VALID,78.814,VALID,0,VALID,25.5555,VALID,220,VALID,0.994531,
2011-02-02, 02:00:04,VALID,996.943,VALID,0,VALID,79.0963,VALID,0,VALID,25.5555,VALID,241,VALID,0.767578,
2011-02-02, 02:01:04,VALID,996.922,VALID,0,VALID,79.2794,VALID,0,VALID,25.4969,VALID,246,VALID,0.358984,
2011-02-02, 02:02:04,VALID,996.894,VALID,0,VALID,79.3633,VALID,0,VALID,25.4578,VALID,241,VALID,0.585156,
2011-02-02, 02:03:04,VALID,996.894,VALID,0,VALID,79.5312,VALID,0,VALID,25.4578,VALID,227,VALID,0.600391,
2011-02-02, 02:04:04,VALID,996.872,VALID,0,VALID,79.6532,VALID,0,VALID,25.3993,VALID,220,VALID,0.717578,
2011-02-02, 02:05:04,VALID,996.851,VALID,0,VALID,79.6838,VALID,0,VALID,25.3797,VALID,240,VALID,1.12773,
2011-02-02, 02:06:04,VALID,996.837,VALID,0,VALID,79.3938,VALID,0,VALID,25.3973,VALID,217,VALID,1.11641,
2011-02-02, 02:07:04,VALID,996.779,VALID,0,VALID,79.5312,VALID,0,VALID,25.4383,VALID,226,VALID,0.301172,
2011-02-02, 02:08:04,VALID,996.806,VALID,0,VALID,79.8745,VALID,0,VALID,25.4383,VALID,218,VALID,0.264062,
2011-02-02, 02:09:04,VALID,996.773,VALID,0,VALID,79.6075,VALID,0,VALID,25.3993,VALID,244,VALID,0.778125,
2011-02-02, 02:10:04,VALID,996.81,VALID,0,VALID,79.7143,VALID,0,VALID,25.4188,VALID,264,VALID,0.767578,
2011-02-02, 02:11:04,VALID,996.764,VALID,0,VALID,79.6761,VALID,0,VALID,25.4188,VALID,239,VALID,0.660547,
2011-02-02, 02:12:04,VALID,996.728,VALID,0,VALID,79.8592,VALID,0,VALID,25.3973,VALID,242,VALID,0.444922,
2011-02-02, 02:13:04,VALID,996.717,VALID,0,VALID,79.905,VALID,0,VALID,25.4188,VALID,245,VALID,0.953516,
2011-02-02, 02:14:04,VALID,996.698,VALID,0,VALID,80.0652,VALID,0.112286,VALID,25.3973,VALID,278,VALID,0.435937,
2011-02-02, 02:15:04,VALID,996.705,VALID,0,VALID,80.0576,VALID,0,VALID,25.4169,VALID,243,VALID,0.620703,
2011-02-02, 02:16:04,VALID,996.668,VALID,0,VALID,80.1492,VALID,0,VALID,25.3973,VALID,271,VALID,0.512109,
2011-02-02, 02:17:04,VALID,996.659,VALID,0,VALID,80.05,VALID,0.112286,VALID,25.3778,VALID,259,VALID,0.465234,
2011-02-02, 02:18:04,VALID,996.644,VALID,0,VALID,80.3018,VALID,0,VALID,25.3973,VALID,220,VALID,0.705859,
2011-02-02, 02:19:04,VALID,996.647,VALID,0,VALID,80.2407,VALID,0.112286,VALID,25.3973,VALID,281,VALID,1.0793,
2011-02-02, 02:20:04,VALID,996.61,VALID,0,VALID,80.1873,VALID,0,VALID,25.4169,VALID,206,VALID,1.33516,
2011-02-02, 02:21:04,VALID,996.62,VALID,0,VALID,80.1797,VALID,0.112286,VALID,25.4754,VALID,240,VALID,1.33828,
2011-02-02, 02:22:04,VALID,996.604,VALID,0,VALID,79.9889,VALID,0,VALID,25.5145,VALID,241,VALID,1.27695,
2011-02-02, 02:23:04,VALID,996.598,VALID,0,VALID,79.7295,VALID,0,VALID,25.6121,VALID,260,VALID,1.72773,
2011-02-02, 02:24:04,VALID,996.614,VALID,0,VALID,79.6151,VALID,0,VALID,25.6902,VALID,228,VALID,1.05898,
2011-02-02, 02:25:04,VALID,996.639,VALID,0,VALID,79.8058,VALID,0.112286,VALID,25.6492,VALID,267,VALID,0.192188,
2011-02-02, 02:26:04,VALID,996.609,VALID,0,VALID,79.699,VALID,0,VALID,25.6316,VALID,269,VALID,0.966406,
2011-02-02, 02:27:04,VALID,996.591,VALID,0,VALID,79.6532,VALID,0,VALID,25.6726,VALID,251,VALID,0.773438,
2011-02-02, 02:28:04,VALID,996.598,VALID,0,VALID,79.5998,VALID,0,VALID,25.6921,VALID,249,VALID,0.513281,
2011-02-02, 02:29:04,VALID,996.586,VALID,0,VALID,79.4778,VALID,0,VALID,25.6921,VALID,246,VALID,0.576172,
2011-02-02, 02:30:04,VALID,996.58,VALID,0,VALID,79.6532,VALID,0,VALID,25.6921,VALID,252,VALID,0.459375,
2011-02-02, 02:31:04,VALID,996.562,VALID,0,VALID,79.5464,VALID,0,VALID,25.6921,VALID,276,VALID,0.920313,
2011-02-02, 02:32:04,VALID,996.584,VALID,0,VALID,79.8287,VALID,0,VALID,25.6726,VALID,279,VALID,0.483984,
2011-02-02, 02:33:04,VALID,996.59,VALID,0,VALID,79.7143,VALID,0,VALID,25.6726,VALID,264,VALID,0.709375,
2011-02-02, 02:34:04,VALID,996.569,VALID,0,VALID,79.8135,VALID,0,VALID,25.6726,VALID,219,VALID,0.655859,
2011-02-02, 02:35:04,VALID,996.577,VALID,0,VALID,79.8287,VALID,0,VALID,25.6726,VALID,259,VALID,0.650781,
2011-02-02, 02:36:04,VALID,996.594,VALID,0,VALID,80.1263,VALID,0,VALID,25.6726,VALID,259,VALID,0.326562,
2011-02-02, 02:37:04,VALID,996.579,VALID,0,VALID,80.1873,VALID,0,VALID,25.6336,VALID,259,VALID,0.230859,
2011-02-02, 02:38:04,VALID,996.617,VALID,0,VALID,80.2407,VALID,0,VALID,25.5945,VALID,220,VALID,0.553125,
2011-02-02, 02:39:04,VALID,996.632,VALID,0,VALID,80.378,VALID,0,VALID,25.5945,VALID,223,VALID,0.582812,
2011-02-02, 02:40:04,VALID,996.622,VALID,0,VALID,80.5306,VALID,0,VALID,25.5945,VALID,227,VALID,0.360938,
2011-02-02, 02:41:04,VALID,996.602,VALID,0,VALID,80.584,VALID,0,VALID,25.575,VALID,226,VALID,0.458203,
2011-02-02, 02:42:04,VALID,996.567,VALID,0,VALID,80.7061,VALID,0,VALID,25.5555,VALID,198,VALID,0.860937,
2011-02-02, 02:43:04,VALID,996.564,VALID,0,VALID,80.3933,VALID,0,VALID,25.614,VALID,245,VALID,1.7918,
2011-02-02, 02:44:04,VALID,996.583,VALID,0,VALID,79.7677,VALID,0,VALID,25.7116,VALID,241,VALID,1.36797,
2011-02-02, 02:45:04,VALID,996.539,VALID,0,VALID,78.9513,VALID,0,VALID,25.8874,VALID,231,VALID,1.76016,
2011-02-02, 02:46:04,VALID,996.578,VALID,0,VALID,78.7911,VALID,0,VALID,25.985,VALID,239,VALID,0.978125,
2011-02-02, 02:47:04,VALID,996.559,VALID,0,VALID,78.6461,VALID,0,VALID,26.0045,VALID,241,VALID,0.7375,
2011-02-02, 02:48:04,VALID,996.607,VALID,0,VALID,78.8903,VALID,0,VALID,25.9655,VALID,224,VALID,1.00078,
2011-02-02, 02:49:04,VALID,996.679,VALID,0,VALID,79.0658,VALID,0,VALID,25.9264,VALID,224,VALID,0.800391,
2011-02-02, 02:50:04,VALID,996.725,VALID,0,VALID,79.5006,VALID,0,VALID,25.8874,VALID,250,VALID,0.66875,
2011-02-02, 02:51:04,VALID,996.744,VALID,0,VALID,80.0652,VALID,0,VALID,25.8288,VALID,282,VALID,0.519531,
2011-02-02, 02:52:04,VALID,996.749,VALID,0,VALID,80.4086,VALID,0,VALID,25.7702,VALID,240,VALID,0.577344,
2011-02-02, 02:53:04,VALID,996.737,VALID,0,VALID,80.9579,VALID,0,VALID,25.6726,VALID,263,VALID,0.458594,
2011-02-02, 02:54:04,VALID,996.774,VALID,0,VALID,81.1715,VALID,0,VALID,25.614,VALID,278,VALID,1.3207,
2011-02-02, 02:55:04,VALID,996.712,VALID,0,VALID,81.0495,VALID,0,VALID,25.5359,VALID,82,VALID,0.903125,
2011-02-02, 02:56:04,VALID,996.702,VALID,0,VALID,81.6674,VALID,0,VALID,25.5164,VALID,295,VALID,1.95273,
2011-02-02, 02:57:04,VALID,996.766,VALID,0,VALID,81.9955,VALID,0,VALID,25.4774,VALID,251,VALID,2.06562,
2011-02-02, 02:58:04,VALID,996.721,VALID,0,VALID,82.0413,VALID,0,VALID,25.4774,VALID,281,VALID,0.878125,
2011-02-02, 02:59:04,VALID,996.714,VALID,0,VALID,82.316,VALID,0,VALID,25.4188,VALID,258,VALID,0.701953,
2011-02-02, 03:00:04,VALID,996.694,VALID,0,VALID,82.6746,VALID,0,VALID,25.3602,VALID,238,VALID,0.773828,
2011-02-02, 03:01:04,VALID,996.672,VALID,0,VALID,82.583,VALID,0,VALID,25.3407,VALID,271,VALID,0.635156,
2011-02-02, 03:02:04,VALID,996.666,VALID,0,VALID,83.0484,VALID,0,VALID,25.3017,VALID,262,VALID,0.270312,
2011-02-02, 03:03:04,VALID,996.634,VALID,0,VALID,83.2239,VALID,0,VALID,25.2626,VALID,276,VALID,1.05586,
2011-02-02, 03:04:04,VALID,996.627,VALID,0,VALID,83.4604,VALID,0,VALID,25.2021,VALID,280,VALID,0.952344,
2011-02-02, 03:05:04,VALID,996.636,VALID,0,VALID,83.7122,VALID,0,VALID,25.2236,VALID,298,VALID,1.3582,
2011-02-02, 03:06:04,VALID,996.654,VALID,0,VALID,83.9029,VALID,0,VALID,25.2236,VALID,278,VALID,0.810156,
2011-02-02, 03:07:04,VALID,996.657,VALID,0,VALID,83.7732,VALID,0,VALID,25.204,VALID,219,VALID,0.960938,
2011-02-02, 03:08:04,VALID,996.655,VALID,0,VALID,83.8648,VALID,0,VALID,25.1845,VALID,232,VALID,0.896484,
2011-02-02, 03:09:04,VALID,996.632,VALID,0,VALID,84.0555,VALID,0,VALID,25.204,VALID,252,VALID,0.535156,
2011-02-02, 03:10:04,VALID,996.623,VALID,0,VALID,84.2005,VALID,0,VALID,25.165,VALID,242,VALID,0.0839844,
2011-02-02, 03:11:04,VALID,996.589,VALID,0,VALID,84.4141,VALID,0,VALID,25.126,VALID,242,VALID,0.000390625,
2011-02-02, 03:12:04,VALID,996.64,VALID,0,VALID,84.6659,VALID,0,VALID,25.0869,VALID,267,VALID,0.528516,
2011-02-02, 03:13:04,VALID,996.615,VALID,0,VALID,84.8032,VALID,0,VALID,25.0674,VALID,269,VALID,0.694922,
2011-02-02, 03:14:04,VALID,996.605,VALID,0,VALID,84.91,VALID,0,VALID,25.0479,VALID,269,VALID,0.117578,
2011-02-02, 03:15:04,VALID,996.593,VALID,0,VALID,85.0779,VALID,0,VALID,25.0674,VALID,263,VALID,1.18633,
2011-02-02, 03:16:04,VALID,996.604,VALID,0,VALID,85.0855,VALID,0,VALID,25.0869,VALID,249,VALID,0.505469,
2011-02-02, 03:17:04,VALID,996.598,VALID,0,VALID,85.0397,VALID,0,VALID,25.0674,VALID,225,VALID,0.548437,
2011-02-02, 03:18:04,VALID,996.62,VALID,0,VALID,85.0016,VALID,0,VALID,25.046,VALID,208,VALID,0.898828,
2011-02-02, 03:19:04,VALID,996.596,VALID,0,VALID,85.0779,VALID,0,VALID,25.0869,VALID,221,VALID,0.602344,
2011-02-02, 03:20:04,VALID,996.557,VALID,0,VALID,85.1694,VALID,0,VALID,25.0674,VALID,204,VALID,0.632031,
2011-02-02, 03:21:04,VALID,996.597,VALID,0,VALID,85.1542,VALID,0,VALID,25.1064,VALID,242,VALID,1.43281,
2011-02-02, 03:22:04,VALID,996.602,VALID,0,VALID,85.0703,VALID,0,VALID,25.126,VALID,243,VALID,0.558984,
2011-02-02, 03:23:04,VALID,996.565,VALID,0,VALID,85.0626,VALID,0,VALID,25.1064,VALID,217,VALID,0.828906,
2011-02-02, 03:24:04,VALID,996.593,VALID,0,VALID,85.0855,VALID,0,VALID,25.1455,VALID,226,VALID,0.723437,
2011-02-02, 03:25:04,VALID,996.552,VALID,0,VALID,85.1237,VALID,0,VALID,25.1455,VALID,217,VALID,0.682813,
2011-02-02, 03:26:04,VALID,996.518,VALID,0,VALID,84.994,VALID,0,VALID,25.126,VALID,210,VALID,0.610937,
2011-02-02, 03:27:04,VALID,996.523,VALID,0,VALID,84.7727,VALID,0,VALID,25.1845,VALID,213,VALID,1.06328,
2011-02-02, 03:28:04,VALID,996.551,VALID,0,VALID,84.643,VALID,0,VALID,25.2431,VALID,221,VALID,1.01602,
2011-02-02, 03:29:04,VALID,996.55,VALID,0,VALID,84.4065,VALID,0,VALID,25.2821,VALID,236,VALID,0.992578,
2011-02-02, 03:30:04,VALID,996.569,VALID,0,VALID,84.4446,VALID,0,VALID,25.3017,VALID,238,VALID,0.729297,
2011-02-02, 03:31:04,VALID,996.559,VALID,0,VALID,84.5515,VALID,0,VALID,25.3017,VALID,251,VALID,0.322656,
2011-02-02, 03:32:04,VALID,996.557,VALID,0,VALID,84.3989,VALID,0,VALID,25.3017,VALID,244,VALID,1.20156,
2011-02-02, 03:33:04,VALID,996.578,VALID,0,VALID,84.2157,VALID,0,VALID,25.3602,VALID,225,VALID,0.723047,
2011-02-02, 03:34:04,VALID,996.549,VALID,0,VALID,84.0555,VALID,0,VALID,25.3602,VALID,224,VALID,0.522266,
2011-02-02, 03:35:04,VALID,996.553,VALID,0,VALID,84.2081,VALID,0,VALID,25.3602,VALID,222,VALID,0.223438,
2011-02-02, 03:36:04,VALID,996.573,VALID,0,VALID,84.2463,VALID,0,VALID,25.3602,VALID,222,VALID,0.34375,
2011-02-02, 03:37:04,VALID,996.563,VALID,0,VALID,84.4065,VALID,0,VALID,25.3407,VALID,222,VALID,0.216016,
2011-02-02, 03:38:04,VALID,996.566,VALID,0,VALID,84.2463,VALID,0,VALID,25.3212,VALID,222,VALID,0.415234,
2011-02-02, 03:39:04,VALID,996.578,VALID,0,VALID,84.2692,VALID,0,VALID,25.3212,VALID,222,VALID,0.219141,
2011-02-02, 03:40:04,VALID,996.546,VALID,0,VALID,84.6125,VALID,0,VALID,25.3212,VALID,222,VALID,0.0746094,
2011-02-02, 03:41:04,VALID,996.542,VALID,0,VALID,84.9863,VALID,0,VALID,25.2802,VALID,222,VALID,0.132422,
2011-02-02, 03:42:04,VALID,996.601,VALID,0,VALID,85.261,VALID,0,VALID,25.2626,VALID,222,VALID,0.124609,
2011-02-02, 03:43:04,VALID,996.591,VALID,0,VALID,85.1313,VALID,0,VALID,25.2431,VALID,222,VALID,0.892578,